Time,TemperatureF,DewpointF,PressureIn,WindDirection,WindDirectionDegrees,WindSpeedMPH,WindSpeedGustMPH,Humidity,HourlyPrecipIn,Conditions,Clouds,dailyrainin,SoftwareType,DateUTC
2013-07-16 00:01:00,74.0,72.0,-100.00,SW,225,0.0,2.0,92,0.00,,,-99.99,,2013-07-16 04:01:00,
2013-07-16 00:12:00,74.0,71.0,-100.00,SSW,210,0.0,2.0,92,0.00,,,-99.99,,2013-07-16 04:12:00,
2013-07-16 00:22:00,74.0,72.0,-100.00,SSW,210,0.0,1.0,92,0.00,,,-99.99,,2013-07-16 04:22:00,
2013-07-16 00:32:00,73.0,71.0,-100.00,South,185,0.0,2.0,93,0.00,,,-99.99,,2013-07-16 04:32:00,
2013-07-16 00:53:00,73.0,71.0,-100.00,ESE,115,0.0,1.0,94,0.00,,,-99.99,,2013-07-16 04:53:00,
2013-07-16 01:01:00,73.0,71.0,-100.00,East,90,0.0,1.0,94,0.00,,,-99.99,,2013-07-16 05:01:00,
2013-07-16 01:22:00,73.0,71.0,-100.00,South,175,0.0,0.0,95,0.00,,,-99.99,,2013-07-16 05:22:00,
2013-07-16 01:32:00,73.0,71.0,-100.00,SW,225,1.0,1.0,95,0.00,,,-99.99,,2013-07-16 05:32:00,
2013-07-16 01:43:00,73.0,71.0,-100.00,North,350,0.0,0.0,95,0.00,,,-99.99,,2013-07-16 05:43:00,
2013-07-16 01:52:00,72.0,71.0,-100.00,SW,235,0.0,2.0,95,0.00,,,-99.99,,2013-07-16 05:52:00,
2013-07-16 02:01:00,72.0,71.0,-100.00,SE,140,0.0,0.0,96,0.00,,,-99.99,,2013-07-16 06:01:00,
2013-07-16 02:11:00,72.0,71.0,-100.00,South,180,0.0,0.0,96,0.00,,,-99.99,,2013-07-16 06:11:00,
2013-07-16 02:22:00,72.0,71.0,-100.00,SSW,200,0.0,0.0,96,0.00,,,-99.99,,2013-07-16 06:22:00,
2013-07-16 02:43:00,72.0,71.0,-100.00,WSW,250,0.0,2.0,97,0.00,,,-99.99,,2013-07-16 06:43:00,
2013-07-16 03:22:00,71.0,71.0,-100.00,SSW,195,0.0,1.0,97,0.00,,,-99.99,,2013-07-16 07:22:00,
2013-07-16 04:22:00,71.0,70.0,-100.00,ESE,115,0.0,1.0,96,0.00,,,-99.99,,2013-07-16 08:22:00,
2013-07-16 04:32:00,71.0,70.0,-100.00,WSW,250,0.0,1.0,97,0.00,,,-99.99,,2013-07-16 08:32:00,
2013-07-16 04:43:00,71.0,70.0,-100.00,WSW,240,1.0,1.0,97,0.00,,,-99.99,,2013-07-16 08:43:00,
2013-07-16 04:52:00,71.0,70.0,-100.00,SE,145,0.0,2.0,96,0.00,,,-99.99,,2013-07-16 08:52:00,
2013-07-16 05:22:00,71.0,70.0,-100.00,South,185,0.0,2.0,97,0.00,,,-99.99,,2013-07-16 09:22:00,
2013-07-16 05:32:00,70.0,70.0,-100.00,WSW,240,1.0,2.0,97,0.00,,,-99.99,,2013-07-16 09:32:00,
2013-07-16 05:52:00,70.0,70.0,-100.00,WSW,250,0.0,2.0,97,0.00,,,-99.99,,2013-07-16 09:52:00,
2013-07-16 06:52:00,70.0,69.0,-100.00,East,80,1.0,6.0,95,0.00,,,-99.99,,2013-07-16 10:52:00,
2013-07-16 07:53:00,72.0,70.0,-100.00,North,5,1.0,6.0,91,0.00,,,-99.99,,2013-07-16 11:53:00,
2013-07-16 08:01:00,73.0,70.0,-100.00,NNE,25,0.0,3.0,90,0.00,,,-99.99,,2013-07-16 12:01:00,
2013-07-16 08:53:00,77.0,71.0,-100.00,NE,50,0.0,3.0,81,0.00,,,-99.99,,2013-07-16 12:53:00,
2013-07-16 09:01:00,79.0,72.0,-100.00,SSE,150,1.0,3.0,78,0.00,,,-99.99,,2013-07-16 13:01:00,
2013-07-16 09:11:00,80.0,71.0,-100.00,ENE,70,1.0,4.0,74,0.00,,,-99.99,,2013-07-16 13:11:00,
2013-07-16 09:22:00,80.0,71.0,-100.00,NE,50,2.0,7.0,75,0.00,,,-99.99,,2013-07-16 13:22:00,
2013-07-16 09:32:00,81.0,71.0,-100.00,ENE,65,2.0,6.0,72,0.00,,,-99.99,,2013-07-16 13:32:00,
2013-07-16 09:52:00,82.0,72.0,-100.00,ENE,70,2.0,7.0,71,0.00,,,-99.99,,2013-07-16 13:52:00,
2013-07-16 10:02:00,83.0,72.0,-100.00,NE,50,1.0,8.0,68,0.00,,,-99.99,,2013-07-16 14:02:00,
2013-07-16 10:22:00,83.0,73.0,-100.00,NE,55,4.0,7.0,69,0.00,,,-99.99,,2013-07-16 14:22:00,
2013-07-16 10:32:00,84.0,73.0,-100.00,ENE,60,4.0,6.0,68,0.00,,,-99.99,,2013-07-16 14:32:00,
2013-07-16 10:43:00,84.0,73.0,-100.00,NE,45,4.0,7.0,68,0.00,,,-99.99,,2013-07-16 14:43:00,
2013-07-16 10:52:00,85.0,73.0,-100.00,NE,45,4.0,7.0,66,0.00,,,-99.99,,2013-07-16 14:52:00,
2013-07-16 11:11:00,86.0,73.0,-100.00,ENE,65,4.0,9.0,65,0.00,,,-99.99,,2013-07-16 15:11:00,
2013-07-16 11:22:00,87.0,74.0,-100.00,NE,50,3.0,5.0,64,0.00,,,-99.99,,2013-07-16 15:22:00,
2013-07-16 11:32:00,88.0,74.0,-100.00,ENE,60,3.0,6.0,63,0.00,,,-99.99,,2013-07-16 15:32:00,
2013-07-16 11:43:00,89.0,73.0,-100.00,NE,50,4.0,9.0,60,0.00,,,-99.99,,2013-07-16 15:43:00,
2013-07-16 11:53:00,88.0,73.0,-100.00,NE,50,2.0,11.0,61,0.00,,,-99.99,,2013-07-16 15:53:00,
2013-07-16 12:52:00,90.0,71.0,-100.00,SE,130,1.0,8.0,53,0.00,,,-99.99,,2013-07-16 16:52:00,
2013-07-16 13:12:00,91.0,71.0,-100.00,ENE,75,4.0,7.0,52,0.00,,,-99.99,,2013-07-16 17:12:00,
2013-07-16 13:22:00,91.0,71.0,-100.00,East,95,3.0,7.0,50,0.00,,,-99.99,,2013-07-16 17:22:00,
2013-07-16 13:33:00,90.0,71.0,-100.00,SE,135,4.0,7.0,53,0.00,,,-99.99,,2013-07-16 17:33:00,
2013-07-16 13:53:00,91.0,70.0,-100.00,East,85,2.0,11.0,50,0.00,,,-99.99,,2013-07-16 17:53:00,
2013-07-16 14:01:00,92.0,70.0,-100.00,East,95,2.0,9.0,49,0.00,,,-99.99,,2013-07-16 18:01:00,
2013-07-16 14:11:00,91.0,70.0,-100.00,East,100,5.0,11.0,50,0.00,,,-99.99,,2013-07-16 18:11:00,
2013-07-16 14:22:00,91.0,71.0,-100.00,ESE,110,3.0,9.0,51,0.00,,,-99.99,,2013-07-16 18:22:00,
2013-07-16 14:33:00,91.0,69.0,-100.00,East,95,5.0,11.0,48,0.00,,,-99.99,,2013-07-16 18:33:00,
2013-07-16 14:52:00,90.0,70.0,-100.00,East,85,1.0,4.0,51,0.00,,,-99.99,,2013-07-16 18:52:00,
2013-07-16 15:01:00,90.0,71.0,-100.00,ESE,110,1.0,5.0,54,0.00,,,-99.99,,2013-07-16 19:01:00,
2013-07-16 15:11:00,91.0,72.0,-100.00,SSE,155,1.0,2.0,54,0.00,,,-99.99,,2013-07-16 19:11:00,
2013-07-16 15:22:00,90.0,70.0,-100.00,SSW,200,2.0,5.0,51,0.00,,,-99.99,,2013-07-16 19:22:00,
2013-07-16 15:32:00,90.0,71.0,-100.00,SSE,160,1.0,4.0,54,0.00,,,-99.99,,2013-07-16 19:32:00,
2013-07-16 15:52:00,90.0,73.0,-100.00,South,180,2.0,7.0,58,0.00,,,-99.99,,2013-07-16 19:52:00,
2013-07-16 16:52:00,84.0,72.0,-100.00,SE,145,3.0,7.0,67,0.00,,,-99.99,,2013-07-16 20:52:00,
2013-07-16 18:52:00,82.0,74.0,-100.00,SE,135,1.0,2.0,77,0.00,,,-99.99,,2013-07-16 22:52:00,
2013-07-16 19:11:00,82.0,74.0,-100.00,West,260,1.0,3.0,77,0.00,,,-99.99,,2013-07-16 23:11:00,
2013-07-16 19:22:00,82.0,74.0,-100.00,WNW,300,1.0,4.0,77,0.00,,,-99.99,,2013-07-16 23:22:00,
2013-07-16 19:32:00,82.0,73.0,-100.00,North,5,1.0,3.0,74,0.00,,,-99.99,,2013-07-16 23:32:00,
2013-07-16 20:11:00,82.0,74.0,-100.00,ESE,115,1.0,1.0,77,0.00,,,-99.99,,2013-07-17 00:11:00,
2013-07-16 20:22:00,81.0,75.0,-100.00,SSE,155,1.0,2.0,80,0.00,,,-99.99,,2013-07-17 00:22:00,
2013-07-16 21:22:00,78.0,75.0,-100.00,SE,125,0.0,2.0,87,0.00,,,-99.99,,2013-07-17 01:22:00,
2013-07-16 21:53:00,77.0,74.0,-100.00,SE,135,0.0,1.0,90,0.00,,,-99.99,,2013-07-17 01:53:00,
2013-07-16 22:01:00,77.0,74.0,-100.00,SE,135,0.0,2.0,91,0.00,,,-99.99,,2013-07-17 02:01:00,
2013-07-16 22:53:00,76.0,74.0,-100.00,SSE,160,1.0,2.0,94,0.00,,,-99.99,,2013-07-17 02:53:00,
2013-07-16 23:53:00,75.0,74.0,-100.00,SSW,195,1.0,2.0,96,0.00,,,-99.99,,2013-07-17 03:53:00,